TimeAKDT,TemperatureF,Dew PointF,Humidity,Sea Level PressureIn,VisibilityMPH,Wind Direction,Wind SpeedMPH,Gust SpeedMPH,PrecipitationIn,Events,Conditions,WindDirDegrees,DateUTC
12:16 AM,32.0,28.4,87,29.81,10.0,Calm,Calm,-,N/A,,Clear,0,2011-10-03 08:16:00
12:36 AM,32.0,28.4,87,29.81,10.0,Calm,Calm,-,N/A,,Clear,0,2011-10-03 08:36:00
12:56 AM,32.0,28.4,87,29.80,10.0,Calm,Calm,-,N/A,,Clear,0,2011-10-03 08:56:00
1:16 AM,32.0,28.4,87,29.80,10.0,NNW,3.5,-,N/A,,Clear,340,2011-10-03 09:16:00
1:36 AM,32.0,28.4,87,29.79,10.0,Calm,Calm,-,N/A,,Clear,0,2011-10-03 09:36:00
1:56 AM,30.2,28.4,93,29.79,10.0,Calm,Calm,-,N/A,,Clear,0,2011-10-03 09:56:00
2:16 AM,30.2,28.4,93,29.78,10.0,Calm,Calm,-,N/A,,Clear,0,2011-10-03 10:16:00
2:36 AM,30.2,28.4,93,29.77,10.0,Calm,Calm,-,N/A,,Clear,0,2011-10-03 10:36:00
2:56 AM,32.0,28.4,87,29.76,10.0,Calm,Calm,-,N/A,,Clear,0,2011-10-03 10:56:00
3:16 AM,30.2,28.4,93,29.76,10.0,Calm,Calm,-,N/A,,Clear,0,2011-10-03 11:16:00
3:36 AM,30.2,28.4,93,29.75,10.0,Calm,Calm,-,N/A,,Clear,0,2011-10-03 11:36:00
3:56 AM,30.2,28.4,93,29.75,10.0,Calm,Calm,-,N/A,,Clear,0,2011-10-03 11:56:00
4:16 AM,30.2,28.4,93,29.74,10.0,Calm,Calm,-,N/A,,Clear,0,2011-10-03 12:16:00
4:36 AM,30.2,26.6,86,29.72,10.0,Calm,Calm,-,N/A,,Clear,0,2011-10-03 12:36:00
4:56 AM,30.2,26.6,86,29.72,10.0,Calm,Calm,-,N/A,,Clear,0,2011-10-03 12:56:00
5:16 AM,30.2,26.6,86,29.71,10.0,Calm,Calm,-,N/A,,Clear,0,2011-10-03 13:16:00
5:36 AM,30.2,26.6,86,29.70,10.0,North,3.5,-,N/A,,Clear,10,2011-10-03 13:36:00
5:56 AM,30.2,26.6,86,29.70,10.0,Calm,Calm,-,N/A,,Clear,0,2011-10-03 13:56:00
6:16 AM,30.2,26.6,86,29.69,10.0,Calm,Calm,-,N/A,,Clear,0,2011-10-03 14:16:00
6:36 AM,30.2,26.6,86,29.68,10.0,Calm,Calm,-,N/A,,Clear,0,2011-10-03 14:36:00
6:56 AM,30.2,26.6,86,29.68,10.0,Calm,Calm,-,N/A,,Clear,0,2011-10-03 14:56:00
7:16 AM,30.2,26.6,86,29.67,2.5,NNE,3.5,-,N/A,,Partly Cloudy,30,2011-10-03 15:16:00
7:36 AM,30.2,26.6,86,29.67,10.0,Calm,Calm,-,N/A,,Partly Cloudy,0,2011-10-03 15:36:00
7:56 AM,30.2,26.6,86,29.67,10.0,Calm,Calm,-,N/A,,Clear,0,2011-10-03 15:56:00
8:16 AM,30.2,28.4,93,29.66,10.0,Calm,Calm,-,N/A,,Clear,0,2011-10-03 16:16:00
8:36 AM,32.0,28.4,87,29.66,10.0,North,3.5,-,N/A,,Clear,350,2011-10-03 16:36:00
8:56 AM,33.8,30.2,87,29.65,10.0,Calm,Calm,-,N/A,,Clear,0,2011-10-03 16:56:00
9:16 AM,33.8,32.0,93,29.65,10.0,Calm,Calm,-,N/A,,Clear,0,2011-10-03 17:16:00
9:36 AM,35.6,33.8,93,29.64,10.0,North,3.5,-,N/A,,Clear,360,2011-10-03 17:36:00
9:56 AM,37.4,35.6,93,29.63,10.0,North,3.5,-,N/A,,Clear,350,2011-10-03 17:56:00
10:16 AM,39.2,37.4,93,29.63,10.0,Calm,Calm,-,N/A,,Clear,0,2011-10-03 18:16:00
10:36 AM,42.8,39.2,87,29.63,10.0,Calm,Calm,-,N/A,,Clear,0,2011-10-03 18:36:00
10:56 AM,44.6,39.2,81,29.62,10.0,Calm,Calm,-,N/A,,Clear,0,2011-10-03 18:56:00
11:16 AM,44.6,39.2,81,29.61,10.0,Calm,Calm,-,N/A,,Clear,0,2011-10-03 19:16:00
11:36 AM,44.6,39.2,81,29.60,10.0,Calm,Calm,-,N/A,,Clear,0,2011-10-03 19:36:00
11:56 AM,46.4,37.4,71,29.60,10.0,Calm,Calm,-,N/A,,Clear,0,2011-10-03 19:56:00
12:16 PM,46.4,37.4,71,29.59,10.0,Calm,Calm,-,N/A,,Clear,0,2011-10-03 20:16:00
12:36 PM,46.4,37.4,71,29.58,10.0,Calm,Calm,-,N/A,,Clear,0,2011-10-03 20:36:00
12:56 PM,46.4,37.4,71,29.57,10.0,Calm,Calm,-,N/A,,Clear,0,2011-10-03 20:56:00
1:16 PM,48.2,37.4,66,29.56,10.0,Calm,Calm,-,N/A,,Clear,0,2011-10-03 21:16:00
1:36 PM,48.2,37.4,66,29.55,10.0,Calm,Calm,-,N/A,,Clear,0,2011-10-03 21:36:00
1:56 PM,48.2,37.4,66,29.55,10.0,Calm,Calm,-,N/A,,Clear,0,2011-10-03 21:56:00
2:16 PM,48.2,37.4,66,29.53,10.0,Calm,Calm,-,N/A,,Clear,0,2011-10-03 22:16:00
2:36 PM,48.2,37.4,66,29.53,10.0,Calm,Calm,-,N/A,,Clear,0,2011-10-03 22:36:00
2:56 PM,50.0,37.4,62,29.52,10.0,Calm,Calm,-,N/A,,Clear,0,2011-10-03 22:56:00
3:16 PM,50.0,37.4,62,29.51,10.0,Calm,Calm,-,N/A,,Clear,0,2011-10-03 23:16:00
3:36 PM,48.2,39.2,71,29.50,10.0,South,3.5,-,N/A,,Clear,170,2011-10-03 23:36:00
3:56 PM,48.2,39.2,71,29.49,10.0,South,3.5,-,N/A,,Clear,190,2011-10-03 23:56:00
4:16 PM,48.2,39.2,71,29.49,10.0,SW,3.5,-,N/A,,Clear,220,2011-10-04 00:16:00
4:36 PM,48.2,39.2,71,29.47,10.0,WSW,3.5,-,N/A,,Clear,240,2011-10-04 00:36:00
4:56 PM,48.2,39.2,71,29.47,10.0,Calm,Calm,-,N/A,,Clear,0,2011-10-04 00:56:00
5:16 PM,48.2,39.2,71,29.46,10.0,Calm,Calm,-,N/A,,Partly Cloudy,0,2011-10-04 01:16:00
5:36 PM,46.4,39.2,76,29.46,10.0,Calm,Calm,-,N/A,,Mostly Cloudy,0,2011-10-04 01:36:00
5:56 PM,46.4,39.2,76,29.46,10.0,Calm,Calm,-,N/A,,Mostly Cloudy,0,2011-10-04 01:56:00
6:16 PM,46.4,39.2,76,29.45,10.0,Calm,Calm,-,N/A,,Partly Cloudy,0,2011-10-04 02:16:00
6:36 PM,46.4,39.2,76,29.44,10.0,Calm,Calm,-,N/A,,Mostly Cloudy,0,2011-10-04 02:36:00
6:56 PM,44.6,39.2,81,29.44,10.0,Calm,Calm,-,N/A,,Overcast,0,2011-10-04 02:56:00
7:16 PM,44.6,39.2,81,29.43,10.0,Calm,Calm,-,N/A,,Overcast,0,2011-10-04 03:16:00
7:36 PM,44.6,39.2,81,29.42,10.0,Calm,Calm,-,N/A,,Overcast,0,2011-10-04 03:36:00
7:56 PM,44.6,39.2,81,29.42,10.0,North,3.5,-,N/A,,Overcast,350,2011-10-04 03:56:00
8:16 PM,42.8,39.2,87,29.41,10.0,NNW,5.8,-,N/A,,Overcast,330,2011-10-04 04:16:00
8:36 PM,42.8,37.4,81,29.40,10.0,Calm,Calm,-,N/A,,Overcast,0,2011-10-04 04:36:00
8:56 PM,42.8,39.2,87,29.39,10.0,NW,3.5,-,N/A,,Overcast,320,2011-10-04 04:56:00
9:16 PM,42.8,39.2,87,29.38,10.0,NNW,3.5,-,N/A,,Overcast,330,2011-10-04 05:16:00
9:36 PM,42.8,37.4,81,29.37,10.0,NW,4.6,-,N/A,,Overcast,310,2011-10-04 05:36:00
9:56 PM,42.8,37.4,81,29.36,10.0,Calm,Calm,-,N/A,,Scattered Clouds,0,2011-10-04 05:56:00
10:16 PM,41.0,35.6,81,29.36,10.0,ENE,3.5,-,N/A,,Clear,70,2011-10-04 06:16:00
10:36 PM,39.2,35.6,87,29.35,10.0,Calm,Calm,-,N/A,,Clear,0,2011-10-04 06:36:00
10:56 PM,37.4,35.6,93,29.35,10.0,NNE,3.5,-,N/A,,Clear,30,2011-10-04 06:56:00
11:16 PM,37.4,35.6,93,29.34,10.0,Calm,Calm,-,N/A,,Clear,0,2011-10-04 07:16:00
11:36 PM,37.4,33.8,87,29.33,10.0,Calm,Calm,-,N/A,,Clear,0,2011-10-04 07:36:00